| time (UTC) | temp C | wind direction | speed KPH | gust KPH | rain 1hr cm | rain 24hr cm | rain mn cm | humidity % | barometer mb |
| 20260906210050 | 20 | 290 | 0.0 | 4.8 | 0.00 | 0.00 | 0.00 | 73 | 1020.9 |
| 20260906204530 | 20 | 252 | 0.0 | 8.0 | 0.00 | 0.00 | 0.00 | 73 | 1020.7 |
| 20260906203034 | 20 | 145 | 0.0 | 3.2 | 0.00 | 0.00 | 0.00 | 74 | 1020.6 |
| 20260906201528 | 20 | 269 | 1.6 | 6.4 | 0.00 | 0.00 | 0.00 | 72 | 1020.6 |
| 20260906200038 | 20 | 296 | 0.0 | 4.8 | 0.00 | 0.00 | 0.00 | 72 | 1020.7 |
| 20260906194527 | 20 | 265 | 0.0 | 12.9 | 0.00 | 0.00 | 0.00 | 71 | 1020.7 |
| 20260906193026 | 20 | 175 | 0.0 | 8.0 | 0.00 | 0.00 | 0.00 | 75 | 1020.7 |
| 20260906191526 | 20 | 327 | 1.6 | 8.0 | 0.00 | 0.00 | 0.00 | 74 | 1020.7 |
| 20260906190026 | 20 | 141 | 0.0 | 4.8 | 0.00 | 0.00 | 0.00 | 73 | 1020.6 |
| 20260906184524 | 20 | 275 | 1.6 | 11.3 | 0.00 | 0.00 | 0.00 | 75 | 1020.6 |
| 20260906183035 | 20 | 65 | 0.0 | 4.8 | 0.00 | 0.00 | 0.00 | 74 | 1020.6 |
| 20260906181528 | 21 | 63 | 0.0 | 9.7 | 0.00 | 0.00 | 0.00 | 74 | 1020.7 |
| 20260906180035 | 21 | 294 | 1.6 | 9.7 | 0.00 | 0.00 | 0.00 | 73 | 1020.6 |
| 20260906174533 | 21 | 71 | 0.0 | 4.8 | 0.00 | 0.00 | 0.00 | 72 | 1020.5 |
| 20260906173023 | 21 | 276 | 0.0 | 9.7 | 0.00 | 0.00 | 0.00 | 75 | 1020.6 |
| 20260906171517 | 20 | 59 | 0.0 | 4.8 | 0.00 | 0.00 | 0.00 | 79 | 1020.7 |
| 20260906170017 | 19 | 355 | 0.0 | 11.3 | 0.00 | 0.00 | 0.00 | 80 | 1020.8 |
| 20260906164532 | 20 | 285 | 0.0 | 4.8 | 0.00 | 0.00 | 0.00 | 80 | 1020.6 |
| 20260906163024 | 20 | 32 | 0.0 | 4.8 | 0.00 | 0.00 | 0.00 | 77 | 1020.6 |
| 20260906161515 | 20 | 283 | 0.0 | 3.2 | 0.00 | 0.00 | 0.00 | 78 | 1020.6 |
| 20260906160013 | 19 | 269 | 0.0 | 6.4 | 0.00 | 0.00 | 0.00 | 80 | 1020.7 |
| 20260906154515 | 20 | 150 | 0.0 | 14.5 | 0.00 | 0.00 | 0.00 | 80 | 1020.7 |
| 20260906153010 | 20 | 63 | 0.0 | 6.4 | 0.00 | 0.00 | 0.00 | 83 | 1020.4 |
| 20260906151508 | 20 | 299 | 0.0 | 6.4 | 0.00 | 0.00 | 0.00 | 82 | 1020.4 |
| 20260906150019 | 19 | 309 | 1.6 | 6.4 | 0.00 | 0.00 | 0.00 | 85 | 1020.3 |
| 20260906144503 | 18 | 217 | 0.0 | 4.8 | 0.00 | 0.00 | 0.00 | 86 | 1020.3 |
| 20260906143002 | 18 | 261 | 0.0 | 6.4 | 0.00 | 0.00 | 0.00 | 89 | 1020.3 |
| 20260906141611 | 18 | 43 | 0.0 | 3.2 | 0.00 | 0.00 | 0.00 | 93 | 1020.2 |
| 20260906140104 | 18 | 265 | 0.0 | 4.8 | 0.00 | 0.00 | 0.00 | 94 | 1020.1 |
| 20260906134656 | 18 | 229 | 1.6 | 11.3 | 0.00 | 0.00 | 0.00 | 96 | 1019.8 |
| 20260906133051 | 17 | 313 | 0.0 | 4.8 | 0.00 | 0.00 | 0.00 | 98 | 1019.7 |
| 20260906131551 | 17 | 351 | 0.0 | 8.0 | 0.00 | 0.00 | 0.00 | 99 | 1019.6 |
| 20260906130051 | 17 | 313 | 0.0 | 4.8 | 0.00 | 0.00 | 0.00 | 99 | 1019.6 |
| 20260906124547 | 17 | 273 | 0.0 | 9.7 | 0.00 | 0.00 | 0.00 | 99 | 1019.6 |
| 20260906123046 | 17 | 48 | 0.0 | 3.2 | 0.00 | 0.00 | 0.00 | 99 | 1019.3 |
| 20260906121544 | 17 | 283 | 0.0 | 4.8 | 0.00 | 0.00 | 0.00 | 99 | 1019.4 |
| 20260906120048 | 15 | 290 | 0.0 | 0.0 | 0.00 | 0.00 | 0.00 | 98 | 1019.3 |
| 20260906114540 | 15 | 290 | 0.0 | 0.0 | 0.00 | 0.00 | 0.00 | 98 | 1019.0 |
| 20260906113035 | 14 | 290 | 0.0 | 0.0 | 0.00 | 0.00 | 0.00 | 98 | 1018.9 |
| 20260906111536 | 14 | 290 | 0.0 | 0.0 | 0.00 | 0.00 | 0.00 | 98 | 1018.8 |
| 20260906110040 | 14 | 290 | 0.0 | 0.0 | 0.00 | 0.00 | 0.00 | 98 | 1018.6 |
| 20260906104530 | 14 | 290 | 0.0 | 0.0 | 0.00 | 0.00 | 0.00 | 98 | 1018.5 |
| 20260906103030 | 13 | 290 | 0.0 | 0.0 | 0.00 | 0.00 | 0.00 | 98 | 1018.3 |
| 20260906101528 | 14 | 290 | 0.0 | 0.0 | 0.00 | 0.00 | 0.00 | 98 | 1018.2 |
| 20260906100025 | 14 | 290 | 0.0 | 0.0 | 0.00 | 0.00 | 0.00 | 98 | 1018.1 |
| 20260906094530 | 15 | 290 | 0.0 | 0.0 | 0.00 | 0.00 | 0.00 | 98 | 1017.9 |
| 20260906093022 | 15 | 290 | 0.0 | 0.0 | 0.00 | 0.00 | 0.00 | 98 | 1017.7 |
| 20260906091520 | 14 | 290 | 0.0 | 0.0 | 0.00 | 0.00 | 0.00 | 98 | 1017.7 |
| 20260906090018 | 14 | 290 | 0.0 | 0.0 | 0.00 | 0.00 | 0.00 | 98 | 1017.5 |
| 20260906084516 | 14 | 290 | 0.0 | 0.0 | 0.00 | 0.00 | 0.00 | 98 | 1017.2 |
| 20260906083014 | 15 | 290 | 0.0 | 0.0 | 0.00 | 0.00 | 0.00 | 98 | 1017.0 |
| 20260906081534 | 15 | 290 | 0.0 | 0.0 | 0.00 | 0.00 | 0.00 | 98 | 1017.0 |
| 20260906080012 | 15 | 290 | 0.0 | 0.0 | 0.00 | 0.00 | 0.00 | 98 | 1017.0 |
| 20260906074511 | 15 | 290 | 0.0 | 0.0 | 0.00 | 0.00 | 0.00 | 98 | 1017.0 |
| 20260906073008 | 15 | 290 | 0.0 | 0.0 | 0.00 | 0.00 | 0.00 | 98 | 1016.9 |
| 20260906071507 | 15 | 290 | 0.0 | 0.0 | 0.00 | 0.00 | 0.00 | 98 | 1016.8 |
| 20260906070006 | 15 | 290 | 0.0 | 0.0 | 0.00 | 0.00 | 0.00 | 98 | 1016.9 |
| 20260906064506 | 16 | 290 | 0.0 | 0.0 | 0.00 | 0.00 | 0.00 | 98 | 1016.9 |
| 20260906063007 | 16 | 290 | 0.0 | 0.0 | 0.00 | 0.00 | 0.00 | 97 | 1016.9 |
| 20260906061507 | 16 | 290 | 0.0 | 0.0 | 0.00 | 0.00 | 0.00 | 98 | 1016.9 |
| 20260906060004 | 16 | 290 | 0.0 | 0.0 | 0.00 | 0.00 | 0.00 | 98 | 1017.0 |
| 20260906054502 | 16 | 290 | 0.0 | 0.0 | 0.00 | 0.00 | 0.00 | 97 | 1017.0 |
| 20260906053003 | 16 | 290 | 0.0 | 0.0 | 0.00 | 0.00 | 0.00 | 97 | 1017.0 |
| 20260906051501 | 16 | 290 | 0.0 | 0.0 | 0.00 | 0.00 | 0.00 | 97 | 1016.9 |
| 20260906050001 | 16 | 290 | 0.0 | 0.0 | 0.00 | 0.00 | 0.00 | 97 | 1017.0 |
| 20260906044600 | 16 | 290 | 0.0 | 0.0 | 0.00 | 0.00 | 0.00 | 97 | 1017.0 |
| 20260906043058 | 16 | 290 | 0.0 | 0.0 | 0.00 | 0.00 | 0.00 | 97 | 1016.9 |
| 20260906041556 | 15 | 290 | 0.0 | 0.0 | 0.00 | 0.00 | 0.00 | 97 | 1016.8 |
| 20260906040116 | 15 | 290 | 0.0 | 0.0 | 0.00 | 0.00 | 0.00 | 96 | 1016.7 |
| 20260906034603 | 16 | 290 | 0.0 | 0.0 | 0.00 | 0.00 | 0.00 | 96 | 1016.8 |
| 20260906033054 | 16 | 290 | 0.0 | 0.0 | 0.00 | 0.00 | 0.00 | 96 | 1016.7 |
| 20260906031557 | 16 | 290 | 0.0 | 0.0 | 0.00 | 0.00 | 0.00 | 96 | 1016.6 |
| 20260906030052 | 16 | 290 | 0.0 | 0.0 | 0.00 | 0.00 | 0.00 | 95 | 1016.5 |
| 20260906024548 | 17 | 290 | 0.0 | 0.0 | 0.00 | 0.00 | 0.00 | 95 | 1016.5 |
| 20260906023051 | 17 | 290 | 0.0 | 0.0 | 0.00 | 0.00 | 0.00 | 95 | 1016.5 |
| 20260906021600 | 17 | 290 | 0.0 | 0.0 | 0.00 | 0.00 | 0.00 | 94 | 1016.4 |
| 20260906020054 | 17 | 290 | 0.0 | 0.0 | 0.00 | 0.00 | 0.00 | 94 | 1016.3 |
| 20260906014555 | 17 | 290 | 0.0 | 0.0 | 0.00 | 0.00 | 0.00 | 93 | 1016.2 |
| 20260906013044 | 18 | 290 | 0.0 | 0.0 | 0.00 | 0.00 | 0.00 | 93 | 1016.2 |
| 20260906011543 | 18 | 290 | 0.0 | 0.0 | 0.00 | 0.00 | 0.00 | 93 | 1016.2 |
| 20260906010043 | 18 | 290 | 0.0 | 0.0 | 0.00 | 0.00 | 0.00 | 92 | 1016.1 |
| 20260906004542 | 18 | 290 | 0.0 | 0.0 | 0.00 | 0.00 | 0.00 | 91 | 1016.1 |
| 20260906003045 | 18 | 290 | 0.0 | 0.0 | 0.00 | 0.00 | 0.00 | 91 | 1015.8 |
| 20260906001540 | 18 | 290 | 0.0 | 0.0 | 0.00 | 0.00 | 0.00 | 90 | 1015.8 |
| 20260906000040 | 18 | 290 | 0.0 | 0.0 | 0.00 | 0.00 | 0.00 | 88 | 1016.0 |
| 20260905234540 | 18 | 290 | 0.0 | 0.0 | 0.00 | 0.00 | 0.00 | 86 | 1016.1 |
| 20260905233042 | 19 | 290 | 0.0 | 0.0 | 0.00 | 0.00 | 0.00 | 83 | 1016.0 |
| 20260905231541 | 20 | 290 | 0.0 | 0.0 | 0.00 | 0.00 | 0.00 | 81 | 1016.0 |
| 20260905230037 | 21 | 336 | 0.0 | 1.6 | 0.00 | 0.00 | 0.00 | 78 | 1016.1 |
| 20260905224536 | 21 | 277 | 1.6 | 4.8 | 0.00 | 0.00 | 0.00 | 75 | 1016.0 |
| 20260905223039 | 21 | 267 | 0.0 | 3.2 | 0.00 | 0.00 | 0.00 | 74 | 1015.9 |
| 20260905221544 | 21 | 323 | 1.6 | 6.4 | 0.00 | 0.00 | 0.00 | 73 | 1015.8 |
| 20260905220034 | 21 | 283 | 1.6 | 4.8 | 0.00 | 0.00 | 0.00 | 71 | 1015.8 |
| 20260905214533 | 22 | 283 | 1.6 | 9.7 | 0.00 | 0.00 | 0.00 | 71 | 1015.7 |
| 20260905213035 | 22 | 355 | 0.0 | 11.3 | 0.00 | 0.00 | 0.00 | 71 | 1015.4 |
| 20260905211542 | 22 | 276 | 0.0 | 8.0 | 0.00 | 0.00 | 0.00 | 69 | 1015.3 |